Dewadaru Airport


Codes: ID-KWB/KWB
Name: Dewadaru Airport
City: Karimunjawa-Karimunjawa Island
Country: Indonesia
Elevation: 35 ft.

Photos at Dewadaru Airport


   Photos courtesy of SpottingLog. You can add your own sightings and photos by signing up for a free trial today.



No photos found.

Weather at Dewadaru Airport


Time (UTC)DescriptionTempratureWindCloud coverageVisibilityPressureHumidity
17-Jun-2024 06:00Few Clouds28°C16 mph, SE11%10000m1010hPa78%
17-Jun-2024 09:00Light Rain28°C18 mph, E13%10000m1009hPa77%
17-Jun-2024 12:00Light Rain29°C18 mph, E52%10000m1010hPa78%
17-Jun-2024 15:00Light Rain29°C16 mph, E89%10000m1011hPa78%
17-Jun-2024 18:00Moderate Rain28°C18 mph, E84%10000m1010hPa80%
17-Jun-2024 21:00Light Rain29°C20 mph, SE96%10000m1009hPa76%
18-Jun-2024 00:00Light Rain29°C20 mph, SE81%10000m1011hPa77%
18-Jun-2024 03:00Light Rain28°C22 mph, SE93%10000m1011hPa78%
18-Jun-2024 06:00Light Rain29°C22 mph, SE95%10000m1009hPa74%
18-Jun-2024 09:00Overcast Clouds29°C22 mph, E100%10000m1008hPa67%
18-Jun-2024 12:00Overcast Clouds29°C20 mph, E100%10000m1010hPa69%
18-Jun-2024 15:00Overcast Clouds29°C20 mph, E100%10000m1011hPa68%
18-Jun-2024 18:00Overcast Clouds29°C20 mph, E100%10000m1010hPa69%
18-Jun-2024 21:00Overcast Clouds28°C20 mph, SE90%10000m1009hPa69%
19-Jun-2024 00:00Overcast Clouds28°C20 mph, E94%10000m1011hPa68%
19-Jun-2024 03:00Overcast Clouds29°C18 mph, E86%10000m1012hPa65%
19-Jun-2024 06:00Overcast Clouds29°C18 mph, E92%10000m1010hPa65%
19-Jun-2024 09:00Overcast Clouds29°C16 mph, E100%10000m1008hPa64%
19-Jun-2024 12:00Overcast Clouds29°C13 mph, E100%10000m1010hPa65%
19-Jun-2024 15:00Overcast Clouds29°C16 mph, E100%10000m1011hPa69%
19-Jun-2024 18:00Overcast Clouds28°C18 mph, E89%10000m1010hPa70%
19-Jun-2024 21:00Overcast Clouds28°C18 mph, SE96%10000m1009hPa64%
20-Jun-2024 00:00Broken Clouds28°C20 mph, SE70%10000m1011hPa67%
20-Jun-2024 03:00Clear Sky28°C18 mph, SE1%10000m1011hPa73%
20-Jun-2024 06:00Clear Sky28°C16 mph, SE1%10000m1009hPa72%
20-Jun-2024 09:00Scattered Clouds28°C16 mph, E41%10000m1008hPa71%
20-Jun-2024 12:00Broken Clouds29°C18 mph, E70%10000m1009hPa65%
20-Jun-2024 15:00Broken Clouds28°C16 mph, E80%10000m1011hPa67%
20-Jun-2024 18:00Broken Clouds28°C16 mph, E74%10000m1010hPa69%
20-Jun-2024 21:00Light Rain28°C16 mph, E70%10000m1009hPa70%
21-Jun-2024 00:00Light Rain28°C18 mph, SE78%10000m1011hPa69%
21-Jun-2024 03:00Scattered Clouds28°C13 mph, SE36%10000m1011hPa69%
21-Jun-2024 06:00Broken Clouds28°C16 mph, SE54%10000m1009hPa68%
21-Jun-2024 09:00Overcast Clouds28°C11 mph, E100%10000m1009hPa69%
21-Jun-2024 12:00Overcast Clouds29°C11 mph, E92%10000m1010hPa64%
21-Jun-2024 15:00Clear Sky29°C13 mph, E9%10000m1012hPa66%
21-Jun-2024 18:00Few Clouds29°C16 mph, SE23%10000m1011hPa70%
21-Jun-2024 21:00Broken Clouds28°C16 mph, SE77%10000m1010hPa73%
22-Jun-2024 00:00Broken Clouds27°C16 mph, SE69%10000m1012hPa71%
22-Jun-2024 03:00Broken Clouds28°C13 mph, SE80%10000m1012hPa69%